1505257200.08,60472,16.06,73262.0,0.21,0.17,0.25,0,*48
1505257201.3,60473,16.06,73262.3,0.23,0.21,0.21,0,*4A
1505257202.51,60474,16.06,73260.8,0.23,0.21,0.21,0,*4D
1505257203.73,60475,16.06,73260.8,0.23,0.21,0.21,0,*4C
1505257204.93,60476,16.0,73260.0,0.23,0.13,0.13,0,*4F
1505257206.14,60477,16.06,73260.0,0.23,0.13,0.21,0,*4F
1505257207.35,60478,16.0,73258.0,0.23,0.13,0.21,0,*40
1505257208.54,60479,16.0,73260.5,0.21,0.05,0.09,0,*4E
1505257209.72,60480,16.0,73260.0,0.21,-0.07,0.05,0,*6B
1505257210.92,60481,16.0,73260.3,0.21,-0.15,-0.03,0,*72
1505257212.12,60482,16.0,73260.8,0.21,-0.19,-0.15,0,*4A
1505257213.3,60483,16.0,73262.5,0.19,-0.15,-0.15,0,*4C
1505257214.5,60484,16.0,73260.8,0.21,-0.15,-0.19,0,*4C
1505257215.7,60485,16.06,73262.3,0.21,-0.29,-0.29,0,*41
1505257216.91,60486,16.0,73262.8,0.21,-0.41,-0.41,0,*42
1505257218.08,60487,16.06,73264.3,0.19,-0.53,-0.53,0,*48
1505257219.27,60488,16.06,73262.0,0.17,-0.69,-0.61,0,*41
1505257220.46,60489,16.0,73262.8,0.17,-0.61,-0.61,0,*48
1505257221.65,60490,16.0,73260.5,0.17,-0.61,-0.61,0,*40
1505257222.82,60491,16.0,73260.8,0.15,-0.69,-0.69,0,*43
1505257224.01,60492,16.06,73264.5,0.17,-0.61,-0.69,0,*4A
1505257225.19,60493,16.0,73260.3,0.15,-0.69,-0.69,0,*41
1505257226.37,60494,16.0,73262.5,0.15,-0.73,-0.81,0,*4B
1505257227.57,60495,16.0,73262.8,0.15,-0.81,-0.97,0,*40
1505257228.83,60496,16.0,73264.0,0.13,-0.89,-1.01,0,*73
1505257230.09,60497,16.0,73260.5,0.13,-1.01,-1.09,0,*4B
1505257231.33,60498,16.0,73260.5,0.13,-1.09,-1.21,0,*46
1505257232.53,60499,16.0,73264.5,0.11,-1.21,-1.33,0,*4C
1505257233.76,60500,16.0,73262.8,0.11,-1.25,-1.35,0,*4F
1505257234.97,60501,16.0,73266.3,0.09,-1.29,-1.35,0,*7B
1505257236.2,60502,16.0,73264.0,0.09,-1.35,-1.35,0,*75
1505257237.43,60503,16.06,73264.8,0.07,-1.29,-1.39,0,*7B
1505257238.69,60504,16.06,73264.5,0.07,-1.35,-1.39,0,*71
1505257239.89,60505,16.0,73266.0,0.07,-1.25,-1.29,0,*70
1505257241.1,60506,16.0,73264.8,0.07,-1.17,-1.29,0,*72
1505257242.28,60507,16.0,73262.5,0.05,-1.17,-1.29,0,*71
1505257243.47,60508,16.06,73266.3,0.05,-1.17,-1.29,0,*7E
1505257244.64,60509,16.0,73262.5,0.01,-1.33,-1.33,0,*76
1505257245.82,60510,16.0,73264.0,0.01,-1.21,-1.25,0,*7A
1505257247.02,60511,16.0,73264.0,0.01,-1.13,-1.21,0,*7E
1505257248.25,60512,16.0,73264.8,-0.01,-1.13,-1.25,0,*54
1505257249.44,60513,16.0,73262.8,-0.03,-1.25,-1.29,0,*5E
1505257250.67,60514,16.0,73266.5,-0.03,-1.35,-1.39,0,*59
1505257251.9,60515,16.0,73266.8,-0.03,-1.35,-1.39,0,*58
1505257253.14,60516,16.0,73266.0,-0.03,-1.35,-1.35,0,*57
1505257254.4,60517,16.0,73266.0,-0.05,-1.35,-1.39,0,*5C
1505257255.61,60518,16.0,73266.8,-0.07,-1.29,-1.39,0,*5C
1505257256.8,60519,16.0,73264.3,-0.07,-1.29,-1.33,0,*57
1505257257.99,60520,16.0,73264.5,-0.07,-1.17,-1.29,0,*5B
1505257259.17,60521,16.0,73264.3,-0.07,-1.21,-1.29,0,*5F
1505257260.36,60522,16.0,73266.8,-0.07,-1.21,-1.29,0,*5C
1505257261.55,60523,16.06,73270.3,-0.11,-1.21,-1.33,0,*61
1505257262.76,60524,16.06,73268.5,-0.09,-1.21,-1.33,0,*5F
1505257263.95,60525,16.06,73266.8,-0.11,-1.25,-1.25,0,*64
1505257265.16,60526,16.0,73264.8,-0.09,-1.33,-1.25,0,*59
1505257266.34,60527,16.0,73264.3,-0.11,-1.25,-1.33,0,*61
1505257267.53,60528,16.0,73264.3,-0.11,-1.25,-1.25,0,*69
1505257268.75,60529,16.06,73268.8,-0.13,-1.29,-1.29,0,*6A
1505257270.02,60530,16.06,73266.8,-0.13,-1.35,-1.35,0,*62
1505257271.24,60531,16.0,73264.3,-0.13,-1.29,-1.29,0,*63
1505257272.43,60532,16.0,73266.5,-0.15,-1.25,-1.29,0,*6A
1505257273.61,60533,16.0,73264.0,-0.15,-1.25,-1.25,0,*67
1505257274.8,60534,16.0,73262.3,-0.15,-1.25,-1.25,0,*60
1505257275.99,60535,16.06,73266.8,-0.15,-1.25,-1.25,0,*61
1505257277.21,60536,16.0,73260.0,-0.17,-1.29,-1.29,0,*60
1505257278.4,60537,16.0,73264.3,-0.21,-1.29,-1.33,0,*6F
1505257279.59,60538,16.0,73260.8,-0.21,-1.21,-1.29,0,*63
1505257280.81,60539,16.0,73262.5,-0.17,-1.33,-1.21,0,*6C
1505257282.01,60540,16.06,73264.8,-0.21,-1.21,-1.21,0,*64
1505257283.2,60541,16.06,73264.3,-0.21,-1.21,-1.21,0,*65
1505257284.39,60542,16.0,73260.0,-0.21,-1.17,-1.21,0,*63
1505257285.61,60543,16.06,73262.5,-0.21,-1.09,-1.21,0,*6D
1505257286.84,60544,16.0,73258.8,-0.21,-1.09,-1.09,0,*60
1505257288.1,60545,16.0,73260.3,-0.23,-1.13,-1.09,0,*68
1505257289.35,60546,16.0,73258.3,-0.23,-0.93,-1.01,0,*5A
1505257290.56,60547,16.06,73260.0,-0.23,-0.69,-0.81,0,*67
1505257291.8,60548,16.0,73260.3,-0.23,-0.93,-0.97,0,*6A
1505257293.02,60549,16.06,73262.5,-0.21,-0.93,-0.93,0,*6D
1505257294.2,60550,16.0,73256.3,-0.21,-0.77,-0.77,0,*65
1505257295.38,60551,16.06,73260.5,-0.21,-0.81,-0.77,0,*6D
1505257296.58,60552,16.06,73260.8,-0.21,-0.81,-0.93,0,*64
1505257297.8,60553,16.0,73258.0,-0.21,-0.93,-0.93,0,*66
1505257298.98,60554,16.0,73256.0,-0.21,-0.77,-0.77,0,*61
1505257300.16,60555,16.06,73262.3,-0.21,-0.69,-0.77,0,*6F
1505257301.34,60556,16.06,73260.0,-0.21,-0.69,-0.81,0,*65
1505257302.52,60557,16.0,73258.3,-0.21,-0.69,-0.77,0,*6D
1505257303.74,60558,16.0,73254.5,-0.17,-0.81,-0.81,0,*68
1505257304.96,60559,16.06,73260.5,-0.21,-0.89,-0.89,0,*6C
1505257306.18,60560,16.0,73258.8,-0.21,-0.89,-0.93,0,*6D
1505257307.4,60561,16.0,73256.8,-0.21,-0.93,-0.93,0,*67
1505257308.62,60562,16.0,73258.5,-0.21,-0.93,-0.89,0,*6F
1505257309.84,60563,16.0,73258.3,-0.17,-0.77,-0.81,0,*69
1505257311.06,60564,16.0,73254.8,-0.21,-0.93,-0.89,0,*69
1505257312.29,60565,16.0,73254.8,-0.21,-0.93,-1.05,0,*5D
1505257313.52,60566,16.0,73252.8,-0.21,-1.05,-1.09,0,*6C
1505257314.71,60567,16.0,73254.3,-0.21,-1.17,-1.29,0,*6C
1505257315.91,60568,16.0,73258.5,-0.21,-1.21,-1.21,0,*6E
1505257317.12,60569,16.06,73256.8,-0.21,-1.09,-1.21,0,*65
1505257318.33,60570,16.0,73252.3,-0.21,-1.09,-1.17,0,*68
1505257319.55,60571,16.0,73256.3,-0.23,-1.21,-1.21,0,*64
1505257320.79,60572,16.0,73258.0,-0.23,-1.13,-1.21,0,*66
1505257322.01,60573,16.0,73256.0,-0.25,-1.13,-1.21,0,*61
1505257323.25,60574,16.0,73254.8,-0.23,-1.13,-1.21,0,*60
1505257324.44,60575,16.06,73258.3,-0.25,-1.25,-1.25,0,*66
1505257325.63,60576,16.0,73252.3,-0.25,-1.25,-1.25,0,*65
1505257326.84,60577,16.06,73254.3,-0.25,-1.13,-1.25,0,*61
1505257328.04,60578,16.06,73254.3,-0.25,-1.21,-1.21,0,*6B
1505257329.23,60579,16.06,73256.3,-0.25,-1.21,-1.33,0,*69
1505257330.43,60580,16.0,73254.8,-0.25,-1.21,-1.21,0,*6C
1505257331.65,60581,16.0,73256.5,-0.25,-1.13,-1.21,0,*6C
1505257332.85,60582,16.0,73254.3,-0.25,-1.21,-1.21,0,*6E
1505257334.07,60583,16.06,73258.5,-0.25,-1.13,-1.21,0,*6E
1505257335.34,60584,16.06,73252.0,-0.27,-1.01,-1.01,0,*6A
1505257336.6,60585,16.0,73250.5,-0.27,-1.05,-1.13,0,*6C
1505257337.82,60586,16.06,73252.3,-0.27,-1.17,-1.29,0,*65
1505257339.08,60587,16.06,73254.3,-0.27,-1.35,-1.35,0,*69
1505257340.34,60588,16.0,73250.3,-0.27,-1.35,-1.39,0,*6A
1505257341.59,60589,16.0,73250.8,-0.29,-1.35,-1.35,0,*69
1505257342.83,60590,16.0,73250.5,-0.29,-1.35,-1.35,0,*61
1505257344.03,60591,16.0,73254.3,-0.29,-1.29,-1.29,0,*60
1505257345.25,60592,16.0,73252.5,-0.29,-1.29,-1.35,0,*6E
1505257346.44,60593,16.0,73256.0,-0.29,-1.17,-1.25,0,*63
1505257347.66,60594,16.06,73256.3,-0.29,-1.13,-1.17,0,*61
1505257348.85,60595,16.0,73252.8,-0.29,-1.25,-1.29,0,*68
1505257350.05,60596,16.06,73260.5,-0.29,-1.29,-1.29,0,*67
1505257351.24,60597,16.0,73258.3,-0.29,-1.29,-1.29,0,*66
1505257352.47,60598,16.0,73258.0,-0.29,-1.29,-1.35,0,*64
1505257353.71,60599,16.06,73258.0,-0.31,-1.29,-1.39,0,*60
1505257354.96,60600,16.06,73256.8,-0.31,-1.33,-1.39,0,*68
1505257356.23,60601,16.0,73252.8,-0.31,-1.39,-1.43,0,*6E
1505257357.45,60602,16.0,73254.5,-0.33,-1.33,-1.35,0,*64
1505257358.7,60603,16.0,73254.3,-0.33,-1.35,-1.43,0,*62
1505257359.94,60604,16.0,73258.0,-0.33,-1.43,-1.35,0,*65
1505257361.17,60605,16.06,73256.8,-0.33,-1.13,-1.21,0,*64
1505257362.41,60606,16.06,73256.3,-0.33,-1.35,-1.35,0,*66
1505257363.6,60607,16.06,73256.8,-0.33,-1.55,-1.55,0,*67
1505257364.84,60608,16.06,73260.5,-0.33,-1.47,-1.35,0,*6D
1505257366.09,60609,16.06,73258.8,-0.33,-1.35,-1.35,0,*69
1505257367.33,60610,16.0,73258.8,-0.33,-1.35,-1.43,0,*60
1505257368.58,60611,16.06,73260.5,-0.33,-1.43,-1.35,0,*61
1505257369.82,60612,16.0,73256.0,-0.33,-1.43,-1.43,0,*63
1505257371.07,60613,16.06,73262.0,-0.33,-1.35,-1.35,0,*62
1505257372.31,60614,16.06,73260.8,-0.33,-1.35,-1.43,0,*64
1505257373.58,60615,16.0,73260.8,-0.35,-1.35,-1.47,0,*67
1505257374.85,60616,16.06,73262.8,-0.35,-1.43,-1.43,0,*61
1505257376.12,60617,16.0,73260.8,-0.35,-1.43,-1.43,0,*60
1505257377.36,60618,16.0,73262.3,-0.37,-1.47,-1.39,0,*64
1505257378.63,60619,16.06,73260.3,-0.35,-1.35,-1.43,0,*6F
1505257379.87,60620,16.0,73262.3,-0.37,-1.35,-1.47,0,*63
1505257381.08,60621,16.06,73262.3,-0.37,-1.47,-1.51,0,*60
1505257382.27,60622,16.0,73260.3,-0.37,-1.51,-1.59,0,*6C
1505257383.48,60623,16.0,73258.5,-0.37,-1.51,-1.39,0,*6B
1505257384.72,60624,16.06,73260.5,-0.37,-1.39,-1.39,0,*62
1505257385.97,60625,16.06,73262.8,-0.37,-1.39,-1.47,0,*6A
1505257387.22,60626,16.0,73260.5,-0.37,-1.39,-1.39,0,*60
1505257388.49,60627,16.0,73262.3,-0.39,-1.39,-1.39,0,*6F
1505257389.76,60628,16.06,73264.0,-0.43,-1.39,-1.39,0,*6D
1505257391.03,60629,16.06,73266.8,-0.39,-1.39,-1.35,0,*6D
1505257392.3,60630,16.0,73266.0,-0.39,-1.35,-1.39,0,*65
1505257393.57,60631,16.0,73260.3,-0.39,-1.39,-1.39,0,*68
1505257394.85,60632,16.0,73266.0,-0.39,-1.39,-1.47,0,*62
1505257396.12,60633,16.06,73266.0,-0.39,-1.39,-1.39,0,*6A
1505257397.39,60634,16.0,73264.5,-0.39,-1.39,-1.39,0,*6D
1505257398.66,60635,16.06,73266.8,-0.43,-1.39,-1.43,0,*6C
1505257399.91,60636,16.0,73262.5,-0.43,-1.33,-1.43,0,*65
1505257401.12,60637,16.0,73262.8,-0.39,-1.29,-1.29,0,*6E
1505257402.37,60638,16.0,73264.0,-0.43,-1.33,-1.39,0,*66
1505257403.63,60639,16.06,73264.8,-0.39,-1.35,-1.35,0,*60
1505257404.9,60640,16.06,73266.5,-0.39,-1.35,-1.35,0,*6E
1505257406.11,60641,16.06,73266.0,-0.43,-1.33,-1.33,0,*62
1505257407.33,60642,16.06,73264.0,-0.43,-1.29,-1.29,0,*61
1505257408.59,60643,16.06,73262.5,-0.39,-1.13,-1.13,0,*6D
1505257409.81,60644,16.06,73266.5,-0.39,-1.29,-1.25,0,*66
1505257411.05,60645,16.06,73260.8,-0.39,-1.29,-1.35,0,*66
1505257412.27,60646,16.0,73262.5,-0.39,-1.29,-1.29,0,*68
1505257413.54,60647,16.06,73264.3,-0.43,-1.39,-1.35,0,*68
1505257414.79,60648,16.0,73262.5,-0.39,-1.29,-1.35,0,*6B
1505257416.05,60649,16.06,73262.8,-0.39,-1.35,-1.35,0,*67
1505257417.3,60650,16.06,73262.5,-0.39,-1.29,-1.35,0,*62
1505257418.54,60651,16.06,73262.3,-0.39,-1.35,-1.29,0,*63
1505257419.75,60652,16.06,73262.8,-0.39,-1.17,-1.25,0,*6C
1505257420.98,60653,16.06,73262.0,-0.43,-1.21,-1.21,0,*61
1505257422.19,60654,16.0,73260.8,-0.43,-1.29,-1.21,0,*6E
1505257423.44,60655,16.0,73258.8,-0.39,-1.29,-1.35,0,*67
1505257424.66,60656,16.0,73258.3,-0.39,-1.29,-1.29,0,*69
1505257425.87,60657,16.0,73258.3,-0.43,-1.29,-1.33,0,*6E
1505257427.09,60658,16.06,73262.5,-0.43,-1.21,-1.33,0,*69
1505257428.3,60659,16.06,73260.0,-0.43,-1.33,-1.33,0,*6B
1505257429.55,60660,16.0,73260.5,-0.39,-1.29,-1.35,0,*61
1505257430.81,60661,16.0,73262.5,-0.39,-1.35,-1.35,0,*6D
1505257432.08,60662,16.0,73260.3,-0.39,-1.35,-1.35,0,*6E
1505257433.29,60663,16.0,73262.0,-0.43,-1.33,-1.33,0,*62
1505257434.5,60664,16.0,73260.8,-0.39,-1.25,-1.25,0,*68
1505257435.72,60665,16.0,73258.5,-0.43,-1.33,-1.33,0,*64
1505257436.95,60666,16.0,73260.3,-0.39,-1.35,-1.25,0,*6B
1505257438.2,60667,16.06,73260.5,-0.43,-1.33,-1.39,0,*6C
1505257439.41,60668,16.06,73258.8,-0.43,-1.33,-1.33,0,*69
1505257440.68,60669,16.0,73258.0,-0.39,-1.35,-1.35,0,*65
1505257441.92,60670,16.06,73260.0,-0.43,-1.29,-1.39,0,*61
1505257443.17,60671,16.0,73260.0,-0.43,-1.33,-1.39,0,*6B
1505257444.41,60672,16.0,73258.5,-0.43,-1.33,-1.39,0,*68
1505257445.65,60673,16.0,73256.8,-0.43,-1.43,-1.51,0,*60
1505257446.86,60674,16.0,73258.3,-0.43,-1.51,-1.55,0,*60
1505257448.07,60675,16.06,73260.5,-0.43,-1.51,-1.51,0,*65
1505257449.31,60676,16.0,73258.5,-0.45,-1.43,-1.47,0,*64
1505257450.53,60677,16.0,73262.3,-0.45,-1.47,-1.55,0,*62
1505257451.71,60678,16.06,73262.3,-0.45,-1.55,-1.55,0,*6E
1505257452.96,60679,16.0,73262.3,-0.45,-1.47,-1.47,0,*6F
1505257454.17,60680,16.06,73260.3,-0.45,-1.47,-1.55,0,*6A
1505257455.42,60681,16.0,73260.8,-0.45,-1.47,-1.47,0,*68
1505257456.66,60682,16.06,73262.8,-0.45,-1.47,-1.47,0,*6B
1505257457.93,60683,16.0,73260.0,-0.47,-1.47,-1.47,0,*68
1505257459.17,60684,16.06,73264.3,-0.45,-1.35,-1.47,0,*68
1505257460.43,60685,16.06,73260.5,-0.47,-1.47,-1.43,0,*6A
1505257461.7,60686,16.0,73262.0,-0.47,-1.43,-1.43,0,*6D
1505257462.97,60687,16.0,73262.0,-0.47,-1.43,-1.43,0,*6C
1505257464.23,60688,16.0,73262.0,-0.47,-1.35,-1.35,0,*63
1505257465.49,60689,16.06,73262.8,-0.47,-1.43,-1.43,0,*62
1505257466.74,60690,16.0,73260.5,-0.45,-1.43,-1.43,0,*68
1505257468.0,60691,16.0,73260.3,-0.47,-1.35,-1.43,0,*6A
1505257469.26,60692,16.06,73262.0,-0.47,-1.35,-1.43,0,*69
1505257470.5,60693,16.06,73262.8,-0.47,-1.47,-1.55,0,*6A
1505257471.69,60694,16.0,73262.3,-0.45,-1.55,-1.55,0,*6C
1505257472.93,60695,16.06,73266.5,-0.47,-1.47,-1.55,0,*6C
1505257474.2,60696,16.0,73262.5,-0.47,-1.47,-1.47,0,*6C
1505257475.46,60697,16.06,73262.8,-0.47,-1.47,-1.47,0,*6D
1505257476.7,60698,16.0,73260.8,-0.47,-1.43,-1.55,0,*65
1505257477.97,60699,16.0,73262.3,-0.47,-1.43,-1.47,0,*67
1505257479.19,60700,16.0,73262.3,-0.49,-1.39,-1.51,0,*62
1505257480.44,60701,16.06,73262.0,-0.49,-1.47,-1.47,0,*6D
1505257481.69,60702,16.06,73260.5,-0.51,-1.39,-1.51,0,*69
1505257482.96,60703,16.06,73262.0,-0.51,-1.47,-1.47,0,*66
1505257484.16,60704,16.0,73262.5,-0.51,-1.59,-1.59,0,*61
1505257485.38,60705,16.06,73262.8,-0.51,-1.51,-1.51,0,*60
1505257486.59,60706,16.06,73262.3,-0.51,-1.59,-1.51,0,*6B
1505257487.77,60707,16.0,73260.8,-0.49,-1.59,-1.59,0,*6B
1505257488.99,60708,16.06,73258.8,-0.51,-1.59,-1.71,0,*67
1505257490.2,60709,16.0,73260.0,-0.51,-1.63,-1.63,0,*6C
1505257491.42,60710,16.0,73258.3,-0.51,-1.63,-1.63,0,*64
1505257492.63,60711,16.06,73260.3,-0.51,-1.51,-1.59,0,*6D
1505257493.84,60712,16.0,73258.5,-0.51,-1.59,-1.59,0,*66
1505257495.04,60713,16.0,73256.3,-0.49,-1.71,-1.71,0,*6E
1505257496.26,60714,16.0,73256.5,-0.51,-1.71,-1.71,0,*60
1505257497.45,60715,16.0,73258.8,-0.53,-1.67,-1.67,0,*63
1505257498.64,60716,16.06,73258.5,-0.53,-1.55,-1.63,0,*65
1505257499.83,60717,16.0,73256.8,-0.49,-1.59,-1.63,0,*63
1505257501.02,60718,16.0,73252.8,-0.53,-1.55,-1.63,0,*6B
1505257502.2,60719,16.0,73254.8,-0.53,-1.63,-1.55,0,*6A
1505257503.39,60720,16.0,73252.0,-0.53,-1.55,-1.63,0,*60
1505257504.57,60721,16.0,73252.0,-0.53,-1.55,-1.55,0,*64
1505257505.78,60722,16.0,73254.8,-0.55,-1.63,-1.55,0,*64
1505257506.97,60723,16.0,73254.8,-0.53,-1.63,-1.63,0,*66
1505257508.15,60724,16.06,73254.5,-0.53,-1.51,-1.55,0,*65
1505257509.39,60725,16.0,73248.8,-0.53,-1.43,-1.43,0,*60
1505257510.64,60726,16.0,73252.5,-0.53,-1.39,-1.39,0,*63
1505257511.91,60727,16.06,73252.0,-0.55,-1.39,-1.39,0,*64
1505257513.15,60728,16.0,73250.8,-0.53,-1.39,-1.39,0,*6D
1505257514.34,60729,16.0,73250.8,-0.53,-1.29,-1.33,0,*67
1505257515.56,60730,16.0,73248.8,-0.53,-1.13,-1.17,0,*60
1505257516.8,60731,16.06,73254.3,-0.53,-1.05,-1.05,0,*65
1505257518.04,60732,16.06,73254.5,-0.53,-1.05,-1.13,0,*61
1505257519.27,60733,16.0,73254.5,-0.53,-1.01,-1.01,0,*67
1505257520.45,60734,16.0,73254.3,-0.53,-0.65,-0.65,0,*60
1505257521.63,60735,16.06,73254.0,-0.49,-0.53,-0.61,0,*6B
1505257522.82,60736,16.0,73254.3,-0.49,-0.77,-0.73,0,*6D
1505257524.05,60737,16.0,73250.5,-0.51,-0.77,-0.85,0,*6C
1505257525.23,60738,16.0,73250.3,-0.49,-0.49,-0.49,0,*67
1505257526.43,60739,16.0,73252.3,-0.45,-0.23,-0.29,0,*60
1505257527.62,60740,16.0,73252.0,-0.45,-0.69,-0.69,0,*64
1505257528.87,60741,16.0,73254.3,-0.47,-1.09,-0.97,0,*51
1505257530.1,60742,16.0,73254.8,-0.45,-1.09,-1.09,0,*66
1505257531.32,60743,16.0,73252.5,-0.47,-1.17,-1.17,0,*65
1505257532.57,60744,16.0,73254.0,-0.45,-1.05,-1.05,0,*60
1505257533.83,60745,16.06,73258.8,-0.47,-1.09,-1.09,0,*63
1505257535.06,60746,16.0,73254.3,-0.45,-1.09,-1.09,0,*62
1505257536.29,60747,16.0,73254.0,-0.45,-0.85,-0.85,0,*63
1505257537.46,60748,16.0,73252.8,-0.45,-0.61,-0.61,0,*6C
1505257538.63,60749,16.0,73258.3,-0.45,-0.49,-0.61,0,*67
1505257539.84,60750,16.0,73256.3,-0.43,-0.81,-0.81,0,*63
1505257541.04,60751,16.0,73256.5,-0.43,-0.77,-0.81,0,*6B
1505257542.25,60752,16.0,73254.8,-0.43,-0.81,-0.81,0,*61
1505257543.46,60753,16.0,73258.0,-0.43,-0.19,-0.37,0,*6C
1505257544.66,60754,16.0,73256.3,-0.39,-0.61,-0.53,0,*6B
1505257545.92,60755,16.0,73258.3,-0.39,-0.89,-0.89,0,*6B
1505257547.17,60756,16.0,73258.0,-0.39,-1.01,-0.97,0,*56
1505257548.44,60757,16.0,73258.0,-0.39,-0.97,-1.01,0,*57
1505257549.7,60758,16.0,73256.0,-0.39,-1.01,-1.01,0,*66
1505257550.96,60759,16.0,73256.5,-0.39,-1.13,-1.01,0,*64
1505257552.16,60760,16.0,73258.8,-0.39,-0.61,-0.61,0,*6D
1505257553.42,60761,16.0,73258.8,-0.39,-0.97,-0.97,0,*6C
1505257554.68,60762,16.06,73260.0,-0.39,-1.13,-1.13,0,*6F
1505257555.9,60763,16.0,73260.8,-0.43,-1.17,-1.17,0,*63
1505257557.1,60764,16.0,73256.8,-0.39,-0.49,-0.61,0,*63
1505257558.31,60765,16.0,73260.3,-0.39,-0.41,-0.49,0,*60
1505257559.57,60766,16.0,73256.5,-0.39,-1.01,-1.01,0,*6B
1505257560.81,60767,16.06,73260.8,-0.37,-1.13,-1.13,0,*64
1505257562.04,60768,16.0,73256.3,-0.37,-1.09,-0.97,0,*5D
1505257563.3,60769,16.0,73258.8,-0.39,-1.01,-0.97,0,*5A
1505257564.52,60770,16.0,73254.8,-0.43,-1.17,-1.17,0,*61
1505257565.73,60771,16.06,73256.5,-0.39,-1.29,-1.25,0,*61
1505257567.0,60772,16.0,73256.3,-0.43,-1.39,-1.39,0,*63
1505257568.24,60773,16.0,73258.5,-0.39,-1.35,-1.29,0,*62
1505257569.49,60774,16.06,73256.8,-0.39,-1.29,-1.35,0,*65
1505257570.73,60775,16.0,73258.3,-0.43,-1.39,-1.51,0,*6A
1505257572.0,60776,16.0,73258.0,-0.43,-1.39,-1.43,0,*6A
1505257573.24,60777,16.0,73256.3,-0.43,-1.39,-1.51,0,*68
1505257574.49,60778,16.0,73256.8,-0.39,-1.47,-1.63,0,*62
1505257575.69,60779,16.06,73258.8,-0.43,-1.51,-1.55,0,*6C
1505257576.9,60780,16.06,73260.8,-0.43,-1.51,-1.55,0,*6A
1505257578.11,60781,16.0,73258.0,-0.43,-1.51,-1.55,0,*6B
1505257579.38,60782,16.0,73260.0,-0.43,-1.39,-1.43,0,*61
1505257580.62,60783,16.06,73260.5,-0.45,-1.47,-1.47,0,*6B
1505257581.86,60784,16.0,73256.8,-0.43,-1.43,-1.51,0,*69
1505257583.1,60785,16.0,73256.0,-0.45,-1.47,-1.47,0,*6D
1505257584.32,60786,16.0,73256.8,-0.45,-1.47,-1.55,0,*6D
1505257585.56,60787,16.06,73260.5,-0.45,-1.47,-1.47,0,*6F
1505257586.81,60788,16.0,73258.5,-0.45,-1.47,-1.47,0,*60
1505257588.07,60789,16.0,73258.0,-0.47,-1.43,-1.35,0,*62
1505257589.32,60790,16.06,73262.3,-0.47,-1.33,-1.35,0,*6D
1505257590.54,60791,16.0,73258.5,-0.45,-1.17,-1.05,0,*6B
1505257591.8,60792,16.0,73260.0,-0.47,-0.93,-1.05,0,*57
1505257593.02,60793,16.0,73262.0,-0.47,-1.21,-1.21,0,*68
1505257594.21,60794,16.0,73262.8,-0.45,-1.21,-1.21,0,*6D
1505257595.43,60795,16.0,73262.0,-0.47,-1.33,-1.25,0,*69
1505257596.61,60796,16.06,73260.8,-0.45,-1.25,-1.25,0,*6F
1505257597.82,60797,16.06,73260.8,-0.45,-1.09,-1.17,0,*61
1505257599.04,60798,16.0,73262.8,-0.47,-1.21,-1.21,0,*63
1505257600.24,60799,16.0,73262.5,-0.45,-1.21,-1.21,0,*60
1505257601.44,60800,16.0,73262.5,-0.45,-1.21,-1.21,0,*6F
1505257602.66,60801,16.0,73262.5,-0.47,-1.21,-1.21,0,*6C
1505257603.85,60802,16.06,73264.0,-0.45,-1.25,-1.21,0,*69
1505257605.05,60803,16.0,73262.8,-0.45,-1.17,-1.21,0,*69
1505257606.24,60804,16.0,73262.8,-0.45,-1.25,-1.21,0,*6F
1505257607.43,60805,16.0,73264.0,-0.45,-1.33,-1.33,0,*6A
1505257608.68,60806,16.0,73266.0,-0.45,-1.43,-1.43,0,*69
1505257609.92,60807,16.06,73264.5,-0.45,-1.35,-1.43,0,*69
1505257611.15,60808,16.0,73264.3,-0.45,-0.97,-1.09,0,*51
1505257612.37,60809,16.06,73264.5,-0.47,-1.21,-1.21,0,*64
1505257613.57,60810,16.0,73266.0,-0.45,-1.17,-1.17,0,*6E
1505257614.78,60811,16.0,73266.0,-0.47,-1.21,-1.17,0,*68
1505257615.97,60812,16.0,73266.5,-0.45,-1.33,-1.25,0,*6B
1505257617.18,60813,16.0,73260.0,-0.47,-1.25,-1.33,0,*68
1505257618.45,60814,16.0,73258.0,-0.47,-1.35,-1.43,0,*69
1505257619.69,60815,16.06,73258.8,-0.45,-1.43,-1.35,0,*6A
1505257620.95,60816,16.0,73254.5,-0.47,-1.35,-1.43,0,*6B
1505257622.22,60817,16.0,73252.0,-0.47,-1.43,-1.47,0,*6F
1505257623.46,60818,16.0,73252.3,-0.45,-1.35,-1.43,0,*67
1505257624.7,60819,16.0,73254.5,-0.45,-1.43,-1.43,0,*67
1505257625.95,60820,16.06,73258.8,-0.47,-1.33,-1.35,0,*69
1505257627.19,60821,16.06,73254.0,-0.47,-1.33,-1.43,0,*69
1505257628.45,60822,16.0,73252.3,-0.47,-1.35,-1.35,0,*6D
1505257629.72,60823,16.0,73254.5,-0.47,-1.35,-1.35,0,*6C
1505257630.91,60824,16.0,73250.5,-0.49,-1.25,-1.33,0,*62
1505257632.12,60825,16.0,73254.8,-0.47,-1.33,-1.33,0,*6A
1505257633.35,60826,16.0,73248.3,-0.49,-1.29,-1.35,0,*6A
1505257634.54,60827,16.0,73248.8,-0.49,-1.29,-1.29,0,*66
1505257635.76,60828,16.06,73252.0,-0.47,-1.33,-1.33,0,*67
1505257636.97,60829,16.0,73252.5,-0.47,-1.25,-1.25,0,*66
1505257638.18,60830,16.0,73250.3,-0.47,-1.25,-1.25,0,*6E
1505257639.4,60831,16.0,73254.3,-0.49,-1.29,-1.35,0,*6C
1505257640.66,60832,16.0,73252.0,-0.47,-1.43,-1.35,0,*6D
1505257641.93,60833,16.0,73254.3,-0.47,-1.43,-1.43,0,*6D
1505257643.2,60834,16.0,73248.8,-0.47,-1.43,-1.35,0,*6B
1505257644.44,60835,16.06,73252.8,-0.49,-1.35,-1.35,0,*65
1505257645.64,60836,16.0,73254.0,-0.49,-1.29,-1.29,0,*66
1505257646.85,60837,16.0,73254.0,-0.51,-1.29,-1.25,0,*62
1505257648.05,60838,16.0,73252.3,-0.49,-1.21,-1.21,0,*68
1505257649.29,60839,16.0,73252.3,-0.49,-1.09,-1.01,0,*61
1505257650.53,60840,16.0,73258.8,-0.49,-1.09,-1.09,0,*67
1505257651.75,60841,16.0,73258.0,-0.49,-1.09,-1.21,0,*6C
1505257653.0,60842,16.0,73258.0,-0.47,-0.93,-0.85,0,*6C
1505257654.25,60843,16.0,73262.3,-0.47,-0.85,-0.85,0,*6A
1505257655.49,60844,16.0,73260.5,-0.47,-0.93,-0.93,0,*6D
1505257656.7,60845,16.0,73258.5,-0.47,-0.81,-0.81,0,*6C
1505257657.95,60846,16.06,73260.0,-0.47,-0.85,-0.85,0,*6F
1505257659.18,60847,16.0,73262.5,-0.45,-0.85,-0.85,0,*6C
1505257660.36,60848,16.06,73262.8,-0.45,-0.69,-0.69,0,*63
1505257661.55,60849,16.0,73262.5,-0.47,-0.61,-0.61,0,*60
1505257662.73,60850,16.0,73258.0,-0.45,-0.69,-0.61,0,*62
1505257663.94,60851,16.06,73264.8,-0.39,-0.65,-0.73,0,*67
1505257665.14,60852,16.0,73262.5,-0.43,-0.77,-0.69,0,*61
1505257666.35,60853,16.0,73262.3,-0.43,-0.65,-0.69,0,*63
1505257667.56,60854,16.0,73262.8,-0.39,-0.77,-0.73,0,*61
1505257668.77,60855,16.06,73262.5,-0.43,-0.77,-0.77,0,*69
1505257669.97,60856,16.0,73262.5,-0.43,-0.69,-0.57,0,*67
1505257671.17,60857,16.06,73260.5,-0.39,-0.61,-0.53,0,*67
1505257672.35,60858,16.0,73260.8,-0.37,-0.53,-0.53,0,*67
1505257673.59,60859,16.0,73258.3,-0.35,0.29,0.25,0,*68
1505257674.83,60860,16.0,73258.8,-0.35,0.29,0.37,0,*61
1505257676.04,60861,16.06,73260.0,-0.35,-0.11,-0.07,0,*58
1505257677.22,60862,16.0,73256.8,-0.33,-0.19,0.01,0,*7E
1505257678.39,60863,16.06,73260.3,-0.33,-0.07,0.05,0,*44
1505257679.59,60864,16.0,73258.3,-0.31,-0.19,-0.03,0,*55
1505257680.8,60865,16.0,73260.3,-0.31,-0.19,-0.19,0,*6F
1505257682.0,60866,16.0,73258.5,-0.31,-0.29,-0.29,0,*6C
1505257683.22,60867,16.0,73260.8,-0.31,-0.45,-0.41,0,*69
1505257684.42,60868,16.0,73260.0,-0.31,-0.57,-0.57,0,*62
1505257685.6,60869,16.0,73258.3,-0.29,-0.65,-0.65,0,*6A
1505257686.8,60870,16.0,73254.3,-0.29,-0.73,-0.73,0,*62
1505257687.99,60871,16.0,73258.5,-0.29,-0.73,-0.77,0,*67
1505257689.19,60872,16.0,73256.8,-0.27,-0.77,-0.77,0,*6E
1505257690.44,60873,16.0,73258.3,-0.27,-0.85,-0.85,0,*6F
1505257691.67,60874,16.06,73256.0,-0.29,-0.85,-0.85,0,*66
1505257692.88,60875,16.0,73254.3,-0.29,-0.89,-0.77,0,*66
1505257694.11,60876,16.06,73250.5,-0.29,-0.85,-0.85,0,*64
1505257695.32,60877,16.0,73248.5,-0.29,-0.85,-0.77,0,*68
1505257696.55,60878,16.0,73250.8,-0.29,-0.89,-0.89,0,*6A
1505257697.78,60879,16.0,73244.3,-0.29,-0.89,-0.89,0,*6B
1505257699.01,60880,16.0,73246.5,-0.29,-0.89,-0.89,0,*6D
1505257700.26,60881,16.0,73246.8,-0.31,-0.93,-0.93,0,*65
1505257701.49,60882,16.0,73244.5,-0.29,-0.89,-0.85,0,*63
1505257702.72,60883,16.0,73244.3,-0.29,-0.85,-0.89,0,*62
1505257703.95,60884,16.0,73244.0,-0.29,-0.85,-0.89,0,*65
1505257705.18,60885,16.0,73246.3,-0.29,-0.85,-0.85,0,*68
1505257706.39,60886,16.06,73244.8,-0.29,-0.85,-0.73,0,*62
1505257707.62,60887,16.0,73254.0,-0.31,-0.89,-0.81,0,*6B
1505257708.86,60888,16.0,73252.8,-0.29,-1.01,-1.01,0,*65
1505257710.11,60889,16.0,73242.0,-0.29,-1.05,-1.05,0,*64
1505257711.35,60890,16.0,73244.5,-0.29,-1.13,-1.13,0,*6C
1505257712.6,60891,16.0,73234.5,-0.29,-1.05,-1.05,0,*6D